| time (UTC) | temp C | wind direction | speed KPH | gust KPH | rain 1hr cm | rain 24hr cm | rain mn cm | humidity % | barometer mb |
| 20260506061527 | 13 | 327 | 20.9 | 33.8 | 0.00 | 0.00 | 0.00 | 57 | 1016.3 |
| 20260506044538 | 13 | 333 | 14.5 | 20.9 | 0.00 | 0.18 | 0.00 | 45 | 1015.3 |
| 20260506043017 | 13 | 335 | 11.3 | 17.7 | 0.00 | 0.20 | 0.00 | 45 | 1015.1 |
| 20260506041520 | 13 | 288 | 4.8 | 8.0 | 0.00 | 0.20 | 0.00 | 52 | 1015.1 |
| 20260506040029 | 14 | 311 | 1.6 | 11.3 | 0.00 | 0.23 | 0.00 | 47 | 1015.0 |
| 20260506034531 | 15 | 288 | 9.7 | 20.9 | 0.00 | 0.25 | 0.00 | 44 | 1014.5 |
| 20260506033028 | 15 | 326 | 9.7 | 12.9 | 0.00 | 0.30 | 0.00 | 44 | 1014.1 |
| 20260506031519 | 15 | 319 | 9.7 | 14.5 | 0.00 | 0.30 | 0.00 | 47 | 1014.0 |
| 20260506030020 | 15 | 275 | 9.7 | 14.5 | 0.00 | 0.30 | 0.00 | 49 | 1013.8 |
| 20260506024528 | 15 | 252 | 11.3 | 17.7 | 0.00 | 0.30 | 0.00 | 52 | 1013.6 |
| 20260506023026 | 15 | 284 | 11.3 | 19.3 | 0.00 | 0.30 | 0.00 | 50 | 1013.4 |
| 20260506021503 | 16 | 281 | 6.4 | 16.1 | 0.00 | 0.30 | 0.00 | 51 | 1013.4 |
| 20260506020003 | 17 | 273 | 9.7 | 17.7 | 0.00 | 0.30 | 0.00 | 47 | 1013.2 |
| 20260506014504 | 17 | 277 | 8.0 | 16.1 | 0.00 | 0.48 | 0.00 | 39 | 1013.1 |
| 20260506013004 | 18 | 285 | 12.9 | 20.9 | 0.00 | 0.51 | 0.00 | 37 | 1013.1 |
| 20260506011509 | 18 | 335 | 9.7 | 14.5 | 0.00 | 0.53 | 0.00 | 37 | 1013.1 |
| 20260506010003 | 18 | 269 | 1.6 | 9.7 | 0.00 | 0.61 | 0.00 | 38 | 1013.1 |
| 20260506004513 | 17 | 290 | 3.2 | 8.0 | 0.00 | 0.61 | 0.00 | 39 | 1013.2 |
| 20260506003005 | 16 | 282 | 4.8 | 12.9 | 0.00 | 0.61 | 0.00 | 42 | 1013.2 |
| 20260506001504 | 17 | 301 | 11.3 | 20.9 | 0.00 | 0.61 | 0.00 | 37 | 1013.1 |
| 20260506000003 | 17 | 48 | 11.3 | 17.7 | 0.00 | 0.61 | 0.00 | 37 | 1013.1 |
| 20260505234504 | 17 | 68 | 4.8 | 12.9 | 0.00 | 0.61 | 0.00 | 36 | 1013.1 |
| 20260505233004 | 16 | 332 | 11.3 | 16.1 | 0.00 | 0.61 | 0.00 | 37 | 1013.1 |
| 20260505231507 | 16 | 315 | 11.3 | 19.3 | 0.00 | 0.61 | 0.00 | 40 | 1013.1 |
| 20260505230007 | 17 | 176 | 8.0 | 16.1 | 0.00 | 0.61 | 0.00 | 38 | 1013.1 |
| 20260505224505 | 17 | 252 | 3.2 | 11.3 | 0.00 | 0.61 | 0.00 | 40 | 1013.3 |
| 20260505223015 | 17 | 8 | 3.2 | 8.0 | 0.00 | 0.61 | 0.00 | 40 | 1013.4 |
| 20260505221504 | 16 | 213 | 1.6 | 6.4 | 0.00 | 0.71 | 0.00 | 45 | 1013.7 |
| 20260505220017 | 16 | 153 | 4.8 | 12.9 | 0.00 | 0.89 | 0.00 | 49 | 1013.7 |
| 20260505214511 | 16 | 191 | 4.8 | 11.3 | 0.00 | 0.94 | 0.00 | 51 | 1013.8 |
| 20260505213006 | 16 | 281 | 6.4 | 16.1 | 0.00 | 0.99 | 0.00 | 47 | 1013.9 |
| 20260505211508 | 16 | 276 | 4.8 | 12.9 | 0.00 | 0.99 | 0.00 | 49 | 1013.9 |
| 20260505210006 | 16 | 281 | 6.4 | 14.5 | 0.00 | 0.99 | 0.00 | 51 | 1014.0 |
| 20260505204510 | 17 | 132 | 4.8 | 9.7 | 0.00 | 0.99 | 0.00 | 45 | 1014.1 |
| 20260505203012 | 15 | 212 | 1.6 | 11.3 | 0.00 | 0.99 | 0.00 | 54 | 1014.2 |
| 20260505201507 | 15 | 335 | 8.0 | 11.3 | 0.00 | 0.99 | 0.00 | 54 | 1014.3 |
| 20260505200008 | 15 | 323 | 11.3 | 17.7 | 0.00 | 0.99 | 0.00 | 52 | 1014.3 |
| 20260505194519 | 13 | 291 | 6.4 | 14.5 | 0.00 | 0.99 | 0.00 | 57 | 1014.4 |
| 20260505193010 | 13 | 163 | 3.2 | 17.7 | 0.00 | 0.99 | 0.00 | 58 | 1014.3 |
| 20260505191517 | 13 | 259 | 4.8 | 9.7 | 0.00 | 0.99 | 0.00 | 63 | 1014.3 |
| 20260505190011 | 12 | 294 | 6.4 | 11.3 | 0.00 | 0.99 | 0.00 | 65 | 1014.2 |
| 20260505184514 | 11 | 360 | 1.6 | 9.7 | 0.00 | 0.99 | 0.00 | 68 | 1014.2 |
| 20260505183017 | 11 | 337 | 8.0 | 16.1 | 0.00 | 0.99 | 0.00 | 66 | 1014.2 |
| 20260505181514 | 11 | 124 | 8.0 | 22.5 | 0.00 | 0.99 | 0.00 | 71 | 1014.1 |
| 20260505180013 | 11 | 292 | 9.7 | 19.3 | 0.00 | 0.99 | 0.00 | 72 | 1013.9 |
| 20260505174516 | 10 | 339 | 14.5 | 19.3 | 0.00 | 0.99 | 0.00 | 77 | 1013.8 |
| 20260505173017 | 10 | 277 | 9.7 | 16.1 | 0.00 | 0.99 | 0.00 | 76 | 1013.7 |
| 20260505171510 | 10 | 278 | 6.4 | 11.3 | 0.00 | 0.99 | 0.00 | 77 | 1013.6 |
| 20260505170017 | 9 | 41 | 6.4 | 17.7 | 0.00 | 0.99 | 0.00 | 82 | 1013.6 |
| 20260505164518 | 8 | 327 | 11.3 | 16.1 | 0.00 | 0.99 | 0.00 | 82 | 1013.5 |
| 20260505163008 | 8 | 42 | 6.4 | 11.3 | 0.00 | 0.99 | 0.00 | 85 | 1013.5 |
| 20260505161507 | 7 | 331 | 3.2 | 9.7 | 0.00 | 0.99 | 0.00 | 88 | 1013.3 |
| 20260505153019 | 6 | 290 | 1.6 | 6.4 | 0.00 | 0.99 | 0.00 | 90 | 1012.9 |
| 20260505151503 | 6 | 355 | 4.8 | 8.0 | 0.00 | 0.99 | 0.00 | 91 | 1012.8 |
| 20260505124535 | 5 | 325 | 3.2 | 6.4 | 0.00 | 0.99 | 0.00 | 94 | 1011.3 |
| 20260505123012 | 5 | 339 | 3.2 | 9.7 | 0.00 | 0.99 | 0.00 | 94 | 1011.1 |
| 20260505121517 | 5 | 320 | 3.2 | 8.0 | 0.00 | 0.99 | 0.00 | 94 | 1011.3 |
| 20260505120023 | 4 | 16 | 8.0 | 11.3 | 0.00 | 0.99 | 0.00 | 94 | 1011.2 |
| 20260505114523 | 4 | 345 | 6.4 | 12.9 | 0.00 | 0.99 | 0.00 | 94 | 1010.9 |
| 20260505113024 | 4 | 292 | 4.8 | 9.7 | 0.00 | 0.99 | 0.00 | 94 | 1010.9 |
| 20260505111512 | 3 | 313 | 3.2 | 6.4 | 0.00 | 0.99 | 0.00 | 94 | 1011.0 |
| 20260505101527 | 3 | 285 | 4.8 | 9.7 | 0.00 | 0.99 | 0.00 | 93 | 1011.3 |
| 20260505100014 | 3 | 244 | 3.2 | 4.8 | 0.00 | 0.99 | 0.00 | 93 | 1011.4 |
| 20260505094520 | 3 | 345 | 4.8 | 9.7 | 0.00 | 0.99 | 0.00 | 93 | 1011.3 |
| 20260505093004 | 4 | 304 | 4.8 | 9.7 | 0.00 | 0.99 | 0.00 | 93 | 1011.2 |
| 20260505091507 | 4 | 347 | 6.4 | 9.7 | 0.00 | 0.99 | 0.00 | 92 | 1011.4 |
| 20260505090011 | 4 | 160 | 3.2 | 4.8 | 0.00 | 0.99 | 0.00 | 92 | 1011.5 |
| 20260505084534 | 4 | 219 | 3.2 | 4.8 | 0.00 | 0.99 | 0.00 | 91 | 1011.8 |
| 20260505083018 | 4 | 166 | 0.0 | 1.6 | 0.00 | 0.99 | 0.00 | 91 | 1012.0 |
| 20260505081511 | 4 | 166 | 0.0 | 4.8 | 0.00 | 0.99 | 0.00 | 91 | 1012.0 |
| 20260505080009 | 4 | 214 | 0.0 | 3.2 | 0.00 | 0.99 | 0.00 | 91 | 1011.9 |
| 20260505074512 | 4 | 229 | 0.0 | 3.2 | 0.00 | 0.99 | 0.00 | 90 | 1012.1 |
| 20260505073016 | 4 | 273 | 3.2 | 8.0 | 0.00 | 0.99 | 0.00 | 90 | 1012.1 |
| 20260505071522 | 4 | 245 | 3.2 | 6.4 | 0.00 | 0.99 | 0.00 | 91 | 1012.1 |